This is the latest recevied weather packets stored in our database for station/object KQ7A. If no packets are shown the sender has not sent any weather packets the latest 10 day(s).
| Time | Temp. | Humidity | Pressure | Rain* | Wind** | Luminosity | Snow |
|---|---|---|---|---|---|---|---|
| 1778002723 | 8.89° C | 84% | 1015.2 hPa | 0 mm | - | 92 W/m² | - |
| 1778002419 | 8.89° C | 85% | 1015 hPa | 0 mm | - | 99 W/m² | - |
| 1778002117 | 8.89° C | 87% | 1015.3 hPa | 0 mm | - | 116 W/m² | - |
| 1778001814 | 8.89° C | 86% | 1015.1 hPa | 0 mm | - | 124 W/m² | - |
| 1778001514 | 8.89° C | 88% | 1015.2 hPa | 0 mm | - | 135 W/m² | - |
| 1778001211 | 8.89° C | 89% | 1014.7 hPa | 0 mm | - | 159 W/m² | - |
| 1778000908 | 8.33° C | 90% | 1014.8 hPa | 0 mm | - | 180 W/m² | - |
| 1778000604 | 8.33° C | 91% | 1015 hPa | 0 mm | - | 141 W/m² | - |
| 1778000300 | 8.33° C | 92% | 1014.5 hPa | 0 mm | - | 145 W/m² | - |
| 1777999995 | 7.78° C | 91% | 1014.7 hPa | 0 mm | - | 160 W/m² | - |
| 1777999691 | 7.78° C | 92% | 1014.8 hPa | 0 mm | - | 92 W/m² | - |
| 1777999389 | 7.78° C | 91% | 1014.7 hPa | 0 mm | - | 77 W/m² | - |
| 1777999087 | 7.78° C | 90% | 1014.7 hPa | 0 mm | - | 80 W/m² | - |
| 1777998785 | 7.78° C | 90% | 1014.7 hPa | 0 mm | - | 73 W/m² | - |
| 1777998483 | 7.78° C | 89% | 1014.5 hPa | 0 mm | - | 75 W/m² | - |
| 1777998179 | 7.78° C | 91% | 1014.6 hPa | 0 mm | - | 92 W/m² | - |
| 1777997876 | 7.78° C | 91% | 1014.1 hPa | 0 mm | - | 105 W/m² | - |
| 1777997573 | 7.78° C | 91% | 1014.3 hPa | 0 mm | - | 88 W/m² | - |
| 1777997270 | 7.22° C | 91% | 1014 hPa | 0 mm | - | 102 W/m² | - |
| 1777996968 | 7.22° C | 92% | 1013.9 hPa | 0 mm | - | 85 W/m² | - |
| 1777996665 | 7.22° C | 91% | 1014.1 hPa | 0 mm | - | 64 W/m² | - |
| 1777996361 | 7.22° C | 92% | 1014.4 hPa | 0 mm | - | 72 W/m² | - |
| 1777996057 | 7.22° C | 93% | 1014.1 hPa | 0 mm | - | 72 W/m² | - |
| 1777995754 | 6.67° C | 94% | 1014.1 hPa | 0 mm | - | 77 W/m² | - |
| 1777995450 | 6.67° C | 95% | 1014 hPa | 0 mm | - | 85 W/m² | - |
* Rain latest hour (hover to see other rain measurements)
** Current wind speed in m/s (hover to see current wind gust speed)